Tracking 29892 objects as of 21-Nov-2024
HD Live streaming from Space Station
objects crossing your sky now

STARLINK-2245

Track STARLINK-2245 now!
10-day predictions
STARLINK-2245 is classified as:


NORAD ID: 48589
Int'l Code: 2021-041AN
Perigee: 553.0 km
Apogee: 555.7 km
Inclination: 53.1 °
Period: 95.6 minutes
Semi major axis: 6925 km
RCS: Unknown
Launch date: May 15, 2021
Source: United States (US)
Launch site: AIR FORCE EASTERN TEST RANGE (AFETR)
Your satellite tracking list
Your tracking list is empty




NASA's NSSDC Master Catalog

Two Line Element Set (TLE):
1 48589U 21041AN  24325.40520385  .00001772  00000-0  13785-3 0  9999
2 48589  53.0520 100.7577 0001973 109.4785 250.6417 15.06400272193715
Source of the keplerian elements: AFSPC